Regional Weather Roundup
Issued by NWS

Home | Current Version | Previous Version | Graphics & Text | Print | Product List | Glossary On
Versions: 1 2 3 4 5 6 7 8 9 10 11 12 13 14 15 16 17 18 19 20 21 22 23 24 25 26 27 28 29 30 31 32 33 34 35 36 37 38 39 40 41 42 43 44 45 46 47 48 49 50
000
ASUS44 KMEG 251300
RWRTN
TENNESSEE HOURLY STATE WEATHER ROUNDUP
NATIONAL WEATHER SERVICE MEMPHIS TN
800 AM CDT FRI JUL 25 2014

TNZ002-004-019-021-049-052-054-088>092-251400-
WEST TENNESSEE

CITY           SKY/WX    TMP DP  RH WIND       PRES   REMARKS
MEMPHIS INTL   MOSUNNY   72  61  68 CALM      30.06R
NWS MEMPHIS      N/A     70 N/A N/A MISG        N/A
JACKSON        SUNNY     66  60  81 CALM      30.07R
DYERSBURG      MOSUNNY   64  54  68 CALM      30.08R
UNION CITY     SUNNY     63  59  88 CALM      30.06S
PARIS          SUNNY     64  57  77 E5        30.08R
LEXINGTON      SUNNY     66  61  82 CALM      30.06R
SAVANNAH       SUNNY     66  66 100 CALM      30.06R
$$

TNZ008-025-027-028-033-062-065-066-251400-
NORTH MIDDLE TENNESSEE

CITY           SKY/WX    TMP DP  RH WIND       PRES   REMARKS
NASHVILLE      MOSUNNY   68  61  78 CALM      30.08R
CLARKSVILLE    SUNNY     67  57  70 NE3       30.09R
COOKEVILLE     SUNNY     64  63  94 MISG      30.08S
CROSSVILLE     FOG       60  59  96 CALM      30.12F VSB 1/4
$$

TNZ061-075-076-078-094-096-097-251400-
SOUTH MIDDLE TENNESSEE

CITY           SKY/WX    TMP DP  RH WIND       PRES   REMARKS
FAYETTEVILLE   MOSUNNY   66  63  88 SE8       30.07F
TULLAHOMA      SUNNY     66  61  82 E3        30.09F
WINCHESTER     SUNNY     66  64  94 S3        30.08F
MCMINNVILLE    MOSUNNY   64  64 100 CALM      30.09F
COLUMBIA       SUNNY     68  64  88 CALM      30.05S
SHELBYVILLE    SUNNY     68  64  88 CALM      30.09S
$$

TNZ017-018-042-046-047-251400-
NORTHEAST TENNESSEE

CITY           SKY/WX    TMP DP  RH WIND       PRES   REMARKS
TRI CITIES     MOSUNNY   65  61  87 E5        30.10R
ELIZABETHTON   SUNNY     66  61  82 E3        30.10S
$$

TNZ012-013-036-069-073-074-251400-
CENTRAL EAST TENNESSEE

CITY           SKY/WX    TMP DP  RH WIND       PRES   REMARKS
KNOXVILLE      MOSUNNY   67  63  87 CALM      30.07F
OAK RIDGE      SUNNY     69  62  78 CALM      30.10S
GATLINBURG     CLOUDY    66  63  88 CALM      30.08S
$$

TNZ083-085-099-251400-
SOUTHEAST TENNESSEE

CITY           SKY/WX    TMP DP  RH WIND       PRES   REMARKS
CHATTANOOGA    MOSUNNY   71  63  75 NE5       30.09R
$$

SKY/WX REPORTED AS FAIR MEANS FEW OR NO CLOUDS BELOW
12 THOUSAND FEET.



USA.gov is the U.S. government's official web portal to all federal, state and local government web resources and services.